Temperature
22 22 21 21 19 19 21 22 22 22 21 21 21 21 20 19 19 19 19 19 19 19 18 18 18 18 18 18 18 18 18 18 18 18 18 18 18 18 18 18 18 18 18 18 18 18 18 18 18
22 22 21 21 19 19 21 22 22 22 21 22 21 20 20 19 19 19 19 19 19 19 18 18 18 18 18 18 18 18 18 18 18 18 18 18 18 18 18 18 18 18 18 18 18 18 18 18 18
22 22 21 19 20 20 21 22 22 22 22 22 21 20 20 19 19 19 19 19 19 19 18 18 18 18 18 18 18 18 18 18 18 18 18 18 18 18 18 18 18 18 18 18 18 18 18 18 18
22 22 22 20 22 22 22 22 22 22 22 22 21 20 19 19 20 20 19 19 19 19 18 18 18 18 18 18 18 18 18 18 18 18 18 18 18 18 18 18 18 18 18 18 18 18 18 18 18
22 22 20 20 22 23 23 23 23 22 22 21 20 19 19 19 20 20 19 19 19 19 18 18 18 18 18 18 18 18 18 18 18 18 18 18 18 18 18 18 18 18 18 18 18 18 18 17 17
23 21 20 20 22 23 23 23 22 21 21 21 20 19 19 19 20 20 19 19 19 19 18 18 18 18 18 18 18 18 18 18 18 18 18 18 18 17 18 17 17 17 17 18 18 17 17 17 17
22 20 21 22 22 23 23 23 22 21 21 21 20 19 19 19 19 19 19 19 19 18 18 18 18 18 18 18 18 18 18 18 18 18 18 18 18 17 17 17 17 17 17 17 18 17 17 17 17
24 20 22 21 22 23 23 23 23 22 22 21 21 19 19 19 19 19 19 19 19 18 18 18 18 18 18 18 18 18 18 18 18 18 18 18 18 17 17 17 17 17 17 17 17 17 17 17 17
24 20 21 22 22 23 23 23 23 23 22 21 21 21 21 20 19 19 19 19 18 18 18 18 18 18 18 18 18 18 18 18 18 18 17 17 17 17 17 17 17 17 17 17 17 17 17 17 17
23 21 22 23 23 23 23 23 23 22 21 21 21 21 20 20 19 19 19 19 19 18 18 18 18 18 18 18 18 18 18 18 18 18 17 17 17 17 17 17 17 17 17 17 17 17 17 17 17
23 23 24 24 24 24 23 23 23 22 21 21 21 20 20 20 19 19 19 19 19 19 18 18 18 18 18 18 18 18 18 18 17 17 17 17 17 18 17 17 17 17 17 17 17 17 17 17 17
24 24 25 25 25 24 24 23 23 22 23 23 22 21 20 20 20 20 19 19 19 19 18 18 18 18 18 18 18 18 18 18 17 17 17 17 17 17 17 17 17 17 17 17 17 17 17 17 17
25 25 26 26 25 25 24 23 23 23 23 23 22 21 20 20 20 20 19 19 19 19 19 18 18 18 18 18 18 18 17 17 17 17 17 17 17 17 17 17 17 17 17 17 17 17 17 17 17
25 25 25 25 25 24 23 23 23 22 23 22 21 21 21 20 20 20 19 19 19 19 19 18 18 18 18 18 18 17 17 17 17 17 17 17 17 17 17 17 17 17 17 17 17 17 17 17 17
26 24 24 24 24 24 24 23 22 23 22 21 21 21 20 20 20 20 20 19 19 19 19 18 18 18 18 18 18 18 17 17 17 17 17 17 17 17 17 17 17 17 17 17 17 17 17 17 17
24 24 24 24 24 24 24 22 22 23 22 21 21 20 20 20 20 20 20 20 19 19 19 18 18 18 18 18 18 18 17 17 17 17 17 17 17 17 17 17 17 17 17 17 17 17 17 17 17
23 23 24 24 24 24 23 22 22 22 22 21 21 21 20 20 20 20 20 20 19 19 19 19 18 18 18 18 18 17 17 17 17 17 17 17 17 17 17 17 17 17 17 17 17 17 17 17 17
24 23 24 24 24 23 23 22 22 22 22 21 21 21 21 21 21 21 20 20 20 19 19 19 18 18 18 18 18 17 17 17 17 17 17 17 17 17 17 17 17 17 17 17 17 17 17 17 17
25 24 24 24 24 23 22 22 22 22 21 21 21 21 21 21 21 21 20 20 20 19 19 19 18 18 18 18 18 18 18 17 18 18 17 17 17 17 17 17 17 17 17 17 17 17 17 17 17
24 24 24 24 24 23 22 22 22 21 21 22 21 21 21 21 21 21 20 20 20 19 19 19 18 18 18 18 18 18 18 18 18 18 18 17 17 17 17 17 17 17 17 17 17 17 17 17 17
24 24 24 24 23 23 23 22 22 22 22 22 22 22 22 22 22 21 21 20 20 20 19 19 19 18 18 18 18 18 18 18 18 18 18 18 17 17 18 17 17 17 17 17 17 17 17 17 17
24 25 24 24 22 21 23 22 22 21 21 21 22 22 22 22 22 22 21 21 20 20 20 19 19 19 18 18 18 18 18 18 18 18 18 18 18 18 18 18 17 17 17 17 17 17 17 17 17
24 24 24 23 22 21 21 21 21 21 21 21 21 22 22 22 22 22 22 22 21 21 20 20 19 19 19 18 18 18 18 18 18 18 18 18 18 18 18 18 18 17 17 17 17 17 17 17 17
24 23 22 20 20 21 21 21 21 20 21 22 22 22 23 23 23 23 22 22 21 21 20 20 19 19 19 19 18 18 18 18 18 18 18 18 18 18 18 18 18 18 17 17 17 17 17 17 17
23 21 21 21 20 21 20 21 21 22 22 22 22 23 23 23 23 22 22 22 22 21 21 20 20 19 19 19 19 19 18 18 18 18 18 18 18 18 18 18 18 18 18 17 17 17 17 17 17
22 22 21 22 21 20 20 20 21 22 23 23 23 23 23 23 23 23 23 22 22 22 21 21 20 20 19 19 19 19 19 18 18 18 18 18 18 18 18 18 18 18 18 17 17 17 17 17 17
22 21 21 19 20 20 20 20 21 22 22 21 22 22 22 22 23 23 23 22 22 22 22 21 21 20 20 19 19 19 19 19 19 18 18 18 18 18 18 18 18 18 18 17 17 17 17 17 17
22 20 18 19 20 20 21 21 21 22 21 21 20 21 22 22 22 23 23 22 22 22 22 22 21 21 20 20 19 19 19 19 19 19 18 18 18 18 18 18 18 18 18 17 17 17 17 17 17
21 20 18 17 19 19 20 21 21 21 21 20 20 21 22 23 23 23 23 23 22 22 22 22 22 21 21 20 20 20 19 19 19 19 19 19 18 18 18 18 18 18 18 18 17 17 17 17 17
22 20 18 20 19 18 19 20 22 20 20 20 21 22 22 22 23 23 23 22 22 22 22 22 22 21 21 21 20 20 20 19 19 19 19 19 19 18 18 18 18 18 18 18 17 17 17 17 17
Wind_Speed
10 9 4 2 4 5 3 3 1 3 3 3 5 6 6 4 2 2 0 3 4 2 1 3 4 5 7 8 9 9 10 11 11 11 11 11 12 13 14 14 15 17 16 17 17 18 19 19 19
8 6 2 3 5 3 3 2 3 3 4 4 5 5 5 4 2 3 1 3 5 3 2 3 5 6 7 8 9 9 9 10 10 10 10 12 12 13 13 14 15 16 16 18 18 18 19 19 18
7 4 3 4 4 3 2 1 5 5 4 2 4 4 4 2 2 2 2 5 5 3 3 4 6 6 7 7 8 9 9 9 10 10 11 12 12 12 13 14 15 16 16 17 17 17 17 17 17
4 2 4 5 3 1 3 4 6 6 4 5 4 5 4 3 2 3 6 7 5 3 3 4 6 6 6 7 7 8 9 10 10 10 11 12 12 12 13 14 15 15 15 15 16 17 16 16 16
2 4 6 4 3 2 2 4 4 4 3 4 4 5 4 4 6 8 7 6 5 3 3 3 5 5 6 7 7 7 9 9 9 9 10 11 11 12 13 14 14 14 14 14 16 16 15 15 15
4 4 5 1 2 2 2 3 4 5 4 4 4 4 2 2 6 6 7 6 4 3 3 3 5 6 6 6 6 8 9 9 9 9 9 10 10 11 13 14 14 14 13 15 15 15 15 13 13
4 4 3 2 1 0 3 3 4 5 5 4 4 4 2 2 4 6 6 5 4 3 3 3 3 4 6 6 7 8 8 8 8 8 9 10 11 11 12 13 13 13 13 14 15 15 14 12 12
4 4 2 1 3 2 3 3 3 5 4 5 4 6 4 4 6 7 6 5 4 3 3 2 3 4 4 5 6 7 8 7 7 7 8 9 10 11 12 12 12 12 12 13 13 13 12 11 10
3 4 2 5 6 4 4 4 3 3 6 3 3 4 6 10 10 8 5 3 2 2 2 2 3 3 3 4 5 6 6 6 6 6 8 8 8 8 9 10 11 11 11 11 11 11 10 9 8
4 3 6 5 6 6 6 5 6 5 4 3 5 6 10 11 10 8 7 5 3 2 0 1 2 2 2 3 4 4 5 5 5 5 6 6 7 7 8 8 9 10 9 9 9 9 8 6 5
4 5 4 3 5 7 7 5 4 8 4 5 9 11 12 10 8 8 7 5 5 3 2 1 1 2 2 2 3 3 4 4 4 5 6 6 6 6 6 5 5 6 7 5 6 6 5 4 4
3 3 3 4 6 7 8 6 5 5 5 7 12 14 12 11 10 9 8 5 4 3 3 2 2 2 2 2 2 2 2 2 2 3 5 5 4 4 3 3 4 4 4 4 4 3 4 4 4
1 0 2 4 7 6 7 5 5 2 5 10 12 12 12 10 8 6 6 5 4 4 4 3 3 3 3 3 2 2 2 2 2 3 4 5 4 3 3 3 3 3 3 3 3 3 3 3 3
1 3 4 5 5 4 6 4 4 3 9 11 12 11 10 10 8 6 5 5 5 5 4 4 4 4 4 3 2 2 2 2 2 2 3 5 4 4 3 2 2 2 2 2 3 3 3 3 3
3 5 6 3 3 3 7 2 2 5 10 11 10 10 9 8 8 8 8 6 6 5 5 5 5 4 4 3 3 2 2 3 2 3 4 5 5 4 4 3 2 2 3 3 3 3 3 3 3
5 5 2 1 3 4 6 3 3 8 11 10 9 9 8 7 8 7 7 6 6 5 5 5 5 5 4 3 3 2 3 3 2 3 3 4 5 6 4 3 2 2 3 3 3 3 3 3 3
4 1 2 2 3 4 4 4 3 8 10 9 8 8 8 6 6 6 6 6 6 7 6 5 4 5 5 4 3 2 2 2 3 3 3 4 5 6 5 3 2 3 3 2 3 3 3 3 3
3 2 2 3 3 5 4 4 5 8 10 9 8 7 8 8 9 6 6 6 6 6 6 5 5 5 5 3 3 2 2 1 2 2 3 4 5 6 5 3 3 4 3 3 3 4 3 3 3
5 4 2 3 2 4 5 5 7 9 9 9 8 8 9 9 7 5 5 6 6 6 5 5 5 5 5 3 3 2 2 1 1 2 3 4 5 6 5 3 3 3 3 3 4 4 4 3 3
3 2 1 1 1 3 2 4 4 10 12 11 10 10 10 8 5 5 6 6 7 7 6 6 6 6 5 4 3 2 2 2 2 1 2 3 4 5 5 4 3 3 3 4 4 4 3 2 2
1 4 4 3 2 3 2 4 2 4 6 6 7 8 9 11 10 9 8 8 7 8 8 7 6 5 5 5 4 3 3 2 1 1 1 2 4 4 5 5 4 4 4 4 4 4 4 3 1
3 4 4 4 4 1 1 2 5 4 5 8 9 9 10 10 10 9 9 9 9 9 8 7 6 6 5 5 5 5 4 3 3 2 2 2 3 4 4 5 5 4 4 4 4 4 3 4 3
4 3 5 4 4 2 2 2 7 1 6 10 12 12 11 11 12 12 12 11 9 9 8 7 6 5 5 6 6 6 4 3 2 2 2 1 1 2 3 4 4 4 4 4 4 4 4 3 3
7 7 7 6 5 1 3 3 6 5 8 7 10 12 11 11 11 11 10 8 7 7 7 7 6 5 5 6 6 6 6 4 3 3 3 2 1 1 3 4 4 4 4 4 4 4 5 4 4
6 7 4 4 3 4 2 3 8 8 7 7 8 10 11 11 11 11 10 10 9 9 9 7 7 6 5 6 6 6 6 6 6 5 4 3 2 2 3 4 4 4 4 4 4 4 4 5 5
5 9 8 5 5 4 1 5 8 6 5 4 5 6 8 9 10 12 12 12 11 11 10 9 8 7 6 6 6 6 6 5 4 5 4 5 4 4 3 4 4 5 5 5 4 4 4 4 5
7 4 7 7 3 1 5 7 8 2 1 1 1 3 6 8 10 11 11 11 11 11 11 10 10 8 7 7 6 5 5 5 5 4 4 4 3 4 4 4 4 4 5 5 4 4 4 4 4
6 9 6 6 6 3 5 5 5 5 4 3 3 4 5 6 8 9 10 11 11 11 10 9 9 9 8 8 7 6 6 6 5 4 4 4 4 3 4 4 4 4 4 4 5 4 4 4 4
4 5 5 6 6 7 4 7 6 8 7 6 6 6 7 7 8 9 9 10 10 9 9 9 9 8 7 7 7 6 5 5 5 5 5 5 4 4 4 4 4 4 4 4 4 5 5 5 5
5 7 8 6 4 5 5 7 6 6 5 5 5 3 4 6 6 7 8 9 9 10 10 10 10 9 9 8 7 6 5 5 5 5 5 4 4 4 4 4 4 4 4 4 5 6 5 6 6
Wind_Direction
149 140 135 112 55 47 17 343 72 75 63 45 76 87 96 85 113 145 245 132 125 114 139 131 110 104 103 102 100 100 100 100 100 100 104 108 111 117 121 122 123 125 124 127 127 128 129 128 128
145 149 139 67 73 58 331 336 81 85 131 123 74 72 73 64 67 100 96 127 120 121 125 128 112 106 106 106 102 101 103 103 101 98 101 112 115 119 120 120 121 126 124 123 124 126 127 127 128
158 175 94 70 83 150 199 132 114 106 114 90 72 61 73 86 106 129 149 125 112 112 126 131 111 105 108 107 107 105 105 102 101 99 104 113 117 118 119 120 121 124 125 124 125 126 126 126 127
156 86 57 63 49 239 181 159 137 128 76 55 84 65 55 58 114 128 121 117 115 113 121 127 113 107 109 115 111 110 108 106 101 100 105 110 115 117 118 120 121 123 123 123 124 127 126 126 128
82 80 55 37 355 350 114 145 134 112 84 67 83 80 36 14 92 112 115 115 114 96 98 119 112 109 114 116 117 116 111 111 107 104 104 106 110 115 118 120 121 120 119 122 122 123 123 125 129
62 67 73 41 343 34 98 122 109 94 95 90 91 88 43 70 101 117 115 111 105 93 85 100 107 106 114 116 118 118 116 117 115 109 104 101 105 113 116 119 119 120 119 122 124 123 124 125 130
103 90 124 166 144 86 156 123 119 122 116 126 120 96 74 111 116 115 107 100 91 82 72 67 79 95 111 107 111 118 116 114 111 107 102 99 98 112 118 118 119 120 120 122 122 124 126 123 127
129 100 95 179 166 196 146 118 127 127 119 126 120 134 175 176 127 107 96 86 83 75 64 58 60 69 87 105 109 114 115 116 114 110 102 99 102 108 116 114 117 117 116 119 123 126 126 124 124
111 81 187 203 182 185 147 130 139 96 114 124 115 148 156 136 126 116 107 89 89 93 45 57 63 69 79 99 107 104 100 100 105 109 107 99 95 101 109 112 116 117 116 120 123 121 121 119 119
112 146 217 204 180 166 155 146 147 112 119 97 82 97 123 134 140 144 150 158 166 177 156 63 84 90 96 101 91 88 88 86 86 94 100 96 94 97 103 112 119 121 118 116 114 113 111 108 107
158 188 206 184 165 149 143 138 133 132 175 185 159 147 145 148 154 161 169 175 182 181 180 144 133 129 126 96 94 88 92 94 92 91 99 100 92 91 89 91 102 108 110 102 101 100 97 98 100
170 228 174 162 144 140 149 138 128 172 207 166 155 151 154 162 169 176 177 180 173 169 191 177 159 145 134 121 106 104 100 103 105 108 115 115 102 90 90 92 91 93 93 88 86 88 87 91 94
145 217 107 129 126 134 125 129 141 190 128 130 141 151 162 170 177 181 176 172 169 177 187 180 170 161 145 132 138 124 130 128 125 127 135 132 122 112 106 103 101 97 103 99 98 92 84 84 89
114 76 78 90 109 124 120 112 112 174 137 139 152 165 174 179 179 174 176 179 185 190 190 180 175 172 152 146 149 153 156 144 138 146 146 143 143 137 127 115 109 109 119 118 113 102 95 90 94
72 71 55 62 101 124 110 86 204 164 146 154 167 175 180 187 183 189 192 190 190 192 185 179 177 167 160 157 164 160 162 150 153 157 152 149 152 154 149 136 132 139 130 118 109 99 98 101 101
56 65 61 274 127 134 131 218 209 155 155 170 179 182 187 194 197 200 195 189 183 175 173 178 172 160 162 159 161 157 158 154 163 156 153 157 159 157 150 147 155 150 128 120 118 111 101 94 98
44 118 234 263 182 151 163 217 184 158 165 182 189 189 189 194 204 204 194 187 178 173 170 167 160 156 160 157 151 147 149 157 169 163 164 166 160 158 151 152 156 144 128 125 129 111 114 110 101
223 212 223 228 212 160 188 218 178 174 179 190 193 194 193 199 208 199 185 179 173 167 165 161 157 153 147 137 122 115 117 130 154 169 179 172 168 161 154 151 147 138 125 123 123 119 110 117 113
181 168 209 243 210 159 207 221 196 186 191 198 201 200 203 211 207 182 171 165 157 157 161 164 159 158 145 134 143 147 161 162 157 182 179 173 170 162 157 152 146 143 145 149 142 128 123 120 115
146 146 201 312 69 152 205 257 216 196 202 203 203 204 205 204 187 181 170 165 166 170 171 169 170 168 166 164 155 151 143 151 160 163 157 172 173 171 166 159 155 147 142 141 147 142 136 145 139
213 189 200 183 73 54 94 327 244 226 210 212 214 206 203 200 194 188 183 181 176 179 181 183 179 174 172 159 130 107 87 76 94 134 175 180 177 175 168 168 159 155 156 166 172 163 158 164 155
252 227 170 142 119 294 135 259 275 229 221 220 219 211 208 204 194 188 186 185 188 190 182 177 175 172 169 156 153 154 161 175 199 191 191 186 174 174 173 170 168 166 165 175 185 175 163 156 168
192 106 100 111 122 63 8 157 285 236 233 234 224 218 211 201 192 191 192 191 190 184 177 174 168 174 173 167 168 165 169 181 171 154 167 186 180 184 185 181 174 175 177 184 188 172 170 170 174
133 77 58 52 73 2 253 176 277 237 225 234 221 218 211 199 193 193 189 179 178 176 173 171 171 183 177 172 172 175 177 175 166 174 184 198 201 201 201 192 189 190 188 192 194 187 182 186 184
106 99 48 4 14 254 257 202 252 252 238 229 221 214 204 195 189 186 181 181 182 180 179 176 176 188 182 179 183 187 187 182 186 190 195 196 200 212 217 202 196 198 198 198 194 192 198 195 194
166 143 157 188 214 268 290 234 256 272 265 247 223 201 188 188 187 187 187 186 186 185 183 180 183 190 187 188 194 193 191 192 200 199 196 202 210 218 211 200 202 203 198 198 193 199 209 203 208
136 168 157 135 139 198 275 282 301 296 308 268 168 154 179 188 183 184 183 183 184 185 186 186 186 188 190 195 193 195 197 198 203 204 206 210 213 216 203 197 201 201 199 197 190 204 211 203 212
139 144 108 126 148 221 279 270 254 265 253 228 187 180 190 185 180 180 183 185 186 187 186 186 187 189 191 193 200 204 202 202 202 198 207 210 213 215 208 205 203 204 204 200 198 209 217 215 223
116 117 119 124 150 162 229 264 231 224 227 216 211 192 189 186 185 184 187 187 182 179 180 185 191 187 190 194 197 200 199 199 195 203 210 208 209 206 209 211 205 205 207 204 206 218 215 220 229
155 159 148 154 197 177 182 257 271 222 225 208 213 202 182 180 184 183 181 177 177 182 186 191 194 193 195 192 190 196 196 193 197 210 216 206 208 210 210 207 207 212 215 211 213 225 225 224 230
Height
1486 1487 1488 1490 1493 1503 1506 1499 1494 1494 1495 1496 1495 1496 1498 1501 1504 1509 1505 1503 1504 1504 1504 1504 1504 1504 1504 1503 1503 1503 1503 1503 1503 1503 1502 1503 1504 1505 1506 1507 1508 1510 1512 1514 1516 1519 1521 1524 1528
1487 1488 1490 1491 1501 1515 1510 1497 1496 1495 1496 1496 1497 1498 1499 1501 1502 1503 1503 1504 1505 1505 1505 1505 1505 1506 1506 1506 1506 1506 1505 1505 1505 1504 1503 1503 1505 1506 1508 1509 1510 1512 1514 1516 1518 1521 1524 1527 1530
1488 1489 1491 1494 1505 1512 1507 1497 1496 1496 1497 1497 1499 1500 1502 1503 1504 1504 1505 1506 1506 1507 1507 1507 1507 1507 1507 1507 1508 1508 1507 1507 1507 1505 1504 1505 1507 1508 1510 1511 1513 1515 1517 1519 1520 1522 1525 1529 1532
1489 1491 1492 1499 1504 1501 1498 1496 1495 1497 1498 1498 1500 1502 1504 1506 1506 1506 1506 1507 1508 1508 1509 1509 1509 1509 1509 1509 1509 1509 1509 1509 1508 1508 1508 1508 1509 1510 1512 1513 1515 1517 1518 1520 1521 1523 1526 1530 1534
1490 1491 1498 1507 1503 1497 1495 1496 1496 1497 1499 1500 1501 1504 1506 1507 1507 1508 1508 1509 1509 1510 1510 1510 1510 1510 1510 1511 1511 1511 1511 1511 1510 1510 1510 1510 1511 1512 1514 1515 1517 1519 1520 1521 1523 1525 1528 1532 1535
1491 1492 1508 1512 1504 1498 1496 1497 1498 1499 1501 1502 1503 1505 1508 1509 1509 1510 1510 1511 1511 1512 1512 1512 1512 1512 1512 1512 1512 1513 1513 1513 1513 1513 1512 1512 1513 1514 1515 1517 1519 1521 1522 1524 1525 1527 1530 1533 1536
1492 1497 1506 1506 1504 1500 1498 1498 1499 1500 1502 1503 1504 1506 1509 1510 1511 1511 1512 1512 1513 1513 1513 1513 1513 1513 1514 1514 1513 1514 1515 1515 1515 1515 1515 1515 1514 1515 1517 1520 1522 1524 1525 1526 1528 1531 1534 1537 1539
1491 1497 1504 1505 1504 1502 1498 1499 1500 1501 1503 1504 1505 1506 1508 1510 1512 1512 1513 1514 1514 1515 1515 1515 1515 1515 1515 1516 1516 1516 1517 1517 1517 1517 1517 1517 1517 1517 1519 1522 1525 1527 1529 1530 1532 1535 1537 1540 1542
1491 1501 1508 1503 1502 1499 1497 1499 1501 1502 1503 1505 1505 1506 1508 1510 1512 1513 1514 1515 1515 1516 1516 1516 1517 1517 1517 1518 1518 1519 1519 1519 1520 1520 1520 1520 1521 1521 1523 1526 1529 1530 1532 1534 1536 1538 1541 1543 1545
1491 1502 1499 1492 1492 1494 1496 1498 1500 1502 1504 1505 1506 1507 1509 1511 1512 1514 1514 1515 1516 1516 1517 1518 1518 1519 1519 1519 1520 1520 1521 1521 1522 1522 1523 1523 1524 1526 1528 1530 1532 1534 1536 1538 1540 1542 1544 1546 1548
1489 1493 1489 1489 1490 1492 1495 1498 1500 1502 1505 1504 1505 1507 1509 1511 1513 1514 1515 1516 1517 1518 1518 1519 1519 1520 1521 1521 1522 1523 1523 1524 1524 1525 1526 1527 1528 1530 1531 1533 1535 1537 1539 1541 1543 1545 1546 1548 1550
1489 1487 1487 1488 1489 1492 1495 1498 1501 1502 1502 1503 1505 1507 1509 1511 1513 1514 1516 1517 1518 1518 1519 1520 1520 1521 1521 1522 1524 1524 1525 1526 1527 1528 1529 1530 1531 1533 1535 1536 1537 1539 1541 1543 1545 1547 1549 1551 1552
1487 1487 1487 1488 1490 1493 1496 1498 1500 1502 1502 1504 1506 1509 1510 1512 1514 1515 1516 1517 1518 1519 1520 1520 1521 1522 1523 1524 1525 1526 1527 1528 1529 1530 1531 1533 1534 1536 1537 1539 1540 1542 1544 1545 1547 1549 1551 1552 1554
1487 1488 1489 1490 1492 1495 1497 1500 1501 1502 1503 1505 1507 1509 1511 1513 1514 1516 1517 1517 1518 1519 1520 1521 1522 1523 1524 1525 1526 1528 1529 1530 1531 1532 1533 1535 1536 1538 1539 1541 1543 1544 1546 1547 1549 1551 1552 1554 1555
1487 1491 1493 1493 1494 1496 1499 1504 1502 1502 1504 1506 1508 1510 1512 1514 1515 1516 1516 1517 1518 1519 1520 1521 1522 1523 1524 1526 1527 1529 1530 1532 1533 1534 1535 1537 1538 1540 1541 1543 1544 1546 1547 1549 1550 1552 1554 1555 1556
1490 1498 1503 1497 1495 1496 1502 1509 1501 1502 1504 1507 1509 1511 1512 1513 1515 1516 1517 1517 1518 1519 1520 1521 1522 1523 1525 1527 1528 1530 1532 1533 1534 1535 1537 1538 1540 1541 1543 1544 1546 1547 1549 1550 1552 1553 1555 1556 1557
1501 1508 1507 1500 1495 1496 1500 1505 1501 1502 1504 1506 1508 1510 1512 1513 1514 1515 1516 1517 1518 1519 1520 1522 1523 1524 1526 1527 1529 1531 1533 1534 1535 1536 1538 1539 1541 1542 1544 1545 1547 1548 1550 1551 1553 1554 1555 1557 1558
1507 1507 1505 1503 1496 1497 1501 1502 1500 1501 1503 1505 1507 1509 1510 1512 1513 1514 1515 1517 1518 1520 1521 1522 1524 1525 1526 1528 1530 1531 1533 1534 1536 1537 1539 1540 1542 1543 1545 1546 1548 1549 1550 1552 1553 1554 1556 1557 1558
1494 1500 1504 1500 1493 1497 1500 1500 1499 1499 1502 1503 1505 1507 1508 1509 1512 1513 1515 1516 1518 1519 1521 1523 1524 1525 1527 1528 1530 1531 1533 1535 1536 1538 1539 1541 1542 1544 1545 1547 1548 1550 1551 1552 1553 1555 1556 1557 1558
1493 1500 1502 1498 1494 1497 1501 1501 1498 1498 1498 1500 1502 1504 1506 1508 1510 1512 1514 1515 1517 1519 1520 1522 1524 1525 1527 1529 1531 1532 1534 1535 1537 1538 1540 1541 1542 1544 1545 1547 1548 1550 1551 1552 1553 1554 1555 1556 1557
1494 1498 1499 1500 1498 1498 1502 1506 1501 1497 1498 1500 1501 1502 1503 1505 1507 1509 1512 1514 1516 1518 1520 1522 1523 1525 1527 1529 1531 1533 1534 1535 1537 1538 1539 1541 1542 1544 1545 1547 1548 1549 1551 1552 1553 1554 1555 1556 1557
1497 1488 1491 1496 1506 1513 1508 1521 1504 1499 1498 1497 1497 1498 1500 1502 1505 1507 1510 1512 1514 1517 1519 1521 1523 1525 1526 1528 1530 1532 1533 1535 1536 1538 1539 1541 1542 1544 1545 1546 1548 1549 1550 1551 1553 1553 1554 1555 1556
1489 1486 1491 1498 1506 1515 1512 1519 1511 1500 1499 1494 1492 1494 1495 1498 1502 1504 1507 1510 1513 1516 1518 1521 1523 1524 1526 1528 1529 1531 1533 1535 1536 1538 1539 1541 1542 1543 1544 1546 1547 1548 1549 1550 1551 1552 1553 1554 1555
1483 1491 1498 1506 1514 1527 1516 1520 1515 1501 1493 1488 1487 1489 1491 1495 1498 1502 1505 1509 1512 1515 1517 1520 1521 1523 1525 1527 1529 1531 1532 1534 1536 1537 1538 1540 1541 1542 1544 1545 1546 1547 1548 1549 1550 1551 1551 1552 1553
1485 1504 1524 1527 1534 1530 1515 1517 1510 1488 1483 1482 1482 1484 1487 1490 1494 1498 1502 1506 1509 1512 1515 1517 1520 1522 1524 1526 1528 1530 1532 1533 1535 1536 1538 1539 1540 1541 1543 1544 1545 1546 1547 1547 1548 1549 1549 1550 1551
1488 1498 1521 1533 1536 1529 1517 1517 1498 1482 1480 1479 1479 1481 1484 1487 1491 1494 1498 1502 1506 1509 1512 1515 1517 1520 1522 1524 1526 1529 1530 1532 1534 1535 1537 1538 1539 1540 1541 1542 1543 1544 1545 1545 1546 1547 1547 1548 1548
1489 1497 1497 1516 1524 1530 1523 1510 1492 1480 1479 1478 1479 1480 1482 1484 1488 1492 1495 1499 1503 1506 1509 1512 1515 1517 1520 1522 1525 1527 1529 1530 1532 1534 1535 1536 1538 1539 1540 1540 1541 1542 1543 1543 1544 1544 1545 1545 1546
1479 1489 1504 1517 1531 1534 1522 1514 1504 1486 1482 1479 1479 1479 1480 1483 1486 1489 1493 1496 1500 1503 1507 1510 1513 1515 1518 1520 1523 1525 1527 1529 1530 1532 1533 1534 1536 1537 1538 1538 1539 1540 1540 1541 1541 1542 1542 1542 1543
1485 1491 1499 1511 1514 1528 1531 1515 1484 1481 1478 1478 1477 1477 1479 1481 1484 1487 1490 1493 1497 1501 1504 1507 1510 1513 1515 1518 1520 1523 1524 1526 1528 1529 1530 1532 1533 1534 1535 1536 1537 1537 1538 1538 1538 1539 1539 1539 1540
1475 1483 1494 1506 1515 1517 1520 1509 1474 1474 1473 1474 1475 1476 1478 1480 1482 1485 1488 1491 1495 1498 1501 1504 1507 1510 1513 1515 1518 1520 1522 1524 1525 1526 1528 1529 1530 1531 1532 1533 1534 1534 1535 1535 1536 1536 1536 1536 1536